星链-11361 (STARLINK-11361)

导读 | 豆包AI

STARLINK-11361是美国太空探索技术公司(SpaceX)于2024年10月18日发射的星链(Starlink)第二代低轨通信卫星,隶属于星链全球卫星互联网星座。作为SpaceX2024年第66批专门星链任务中发射的卫星之一,它将助力星链实现全球高速低延迟宽带覆盖,扩展直连手机通信能力,推动星座组网进度。此次发射后,星链全球发射总规模突破7100颗,持续推动全球卫星互联网覆盖进程。

基本信息
目录编号:
61585
目录名称:
STARLINK-11361
国际标识:
2024-187M
轨道中心:
EARTH
卫星名称:
星链-11361
卫星全名:
星链-11361 (STARLINK-11361)
卫星状态:
在轨 (已飞行513 天)
发射日期:
2024-10-18 UTC
国别 :
美国 (US)
星等 :
--
轨道信息
数据来源 国际轨道数据
星历时间: 2026-03-15T14:17:11+0800
6小时前
查看轨道信息
半长轴: 6737.696km
偏心率: 0.0000446
轨道倾角: 53.157°
近地点辐角 56.040°
升交点赤经 268.916°
平近点角 304.066°
近地点: 359.258km
远地点: 359.86km
周期: 91.733分钟
每日圈数: 15.697688
详细信息
固有亮度:
5
最大亮度:
2.5
卫星平台:
Starlink V1.0
覆盖范围:
全球
运营商:
太空探索技术公司
运营商所在国:
美国
制造商(研发单位):
太空探索技术公司
制造商所在国:
美国
使用方式:
暂无
卫星简介
Starlink 计划是 SpaceX 推出的全球卫星互联网项目,通过发射低轨道卫星,为全球尤其是偏远地区提供高速、低延迟的互联网服务。自 2019 年起,Starlink 已部署数千颗卫星,旨在缩小全球数字鸿沟,推动互联网普及。该项目还为军事、航空等行业提供通信支持,带来广泛经济效益。
2D轨道图
3D轨道图
轨道高度分析图
轨道倾角分析图
轨道综合分析图
查看轨道综合分析图